This is the latest recevied weather packets stored in our database for station/object KC3ELT-10. If no packets are shown the sender has not sent any weather packets the latest 10 day(s).
| Time | Temp. | Humidity | Pressure | Rain* | Wind** | Luminosity | Snow |
|---|---|---|---|---|---|---|---|
| 1777958879 | 14.44° C | 60% | 1003.7 hPa | 0 mm | 0.45 m/s, 182° | - | - |
| 1777958579 | 14.44° C | 60% | 1003.7 hPa | 0 mm | 0.89 m/s, 132° | - | - |
| 1777958279 | 14.44° C | 59% | 1003.7 hPa | 0 mm | 1.34 m/s, 169° | - | - |
| 1777957979 | 14.44° C | 59% | 1003.7 hPa | 0 mm | 0.89 m/s, 174° | - | - |
| 1777957679 | 14.44° C | 59% | 1003.7 hPa | 0 mm | 1.79 m/s, 127° | - | - |
| 1777957379 | 14.44° C | 58% | 1003.7 hPa | 0 mm | 0.45 m/s, 139° | - | - |
| 1777957079 | 14.44° C | 58% | 1003.8 hPa | 0 mm | 2.68 m/s, 195° | - | - |
| 1777956779 | 14.44° C | 57% | 1003.8 hPa | 0 mm | 2.24 m/s, 147° | - | - |
| 1777956479 | 15° C | 57% | 1003.8 hPa | 0 mm | 1.79 m/s, 203° | - | - |
| 1777956179 | 15° C | 57% | 1003.9 hPa | 0 mm | 1.34 m/s, 155° | - | - |
| 1777955879 | 15° C | 57% | 1003.9 hPa | 0 mm | 1.34 m/s, 169° | - | - |
| 1777955579 | 15° C | 56% | 1003.9 hPa | 0 mm | 0.89 m/s, 149° | - | - |
| 1777955279 | 15° C | 56% | 1003.7 hPa | 0 mm | 2.68 m/s, 170° | - | - |
| 1777954979 | 15° C | 56% | 1003.7 hPa | 0 mm | 2.68 m/s, 165° | - | - |
| 1777954679 | 14.44° C | 56% | 1003.7 hPa | 0 mm | 1.34 m/s, 193° | - | - |
| 1777954379 | 14.44° C | 57% | 1003.7 hPa | 0 mm | 1.79 m/s, 155° | - | - |
| 1777954079 | 14.44° C | 57% | 1003.7 hPa | 0 mm | 1.79 m/s, 157° | - | - |
| 1777953779 | 14.44° C | 56% | 1003.7 hPa | 0 mm | 1.34 m/s, 184° | - | - |
| 1777953479 | 14.44° C | 57% | 1003.7 hPa | 0 mm | 2.68 m/s, 165° | - | - |
| 1777953179 | 14.44° C | 56% | 1003.7 hPa | 0 mm | 0.89 m/s, 166° | - | - |
| 1777952879 | 14.44° C | 57% | 1003.7 hPa | 0 mm | 1.79 m/s, 178° | - | - |
| 1777952579 | 14.44° C | 56% | 1003.6 hPa | 0 mm | 0.89 m/s, 175° | - | - |
| 1777952279 | 15° C | 55% | 1003.6 hPa | 0 mm | 0.89 m/s, 175° | - | - |
| 1777951979 | 15° C | 55% | 1003.6 hPa | 0 mm | 1.79 m/s, 155° | - | - |
| 1777951679 | 15° C | 55% | 1003.7 hPa | 0 mm | 1.34 m/s, 183° | - | - |
* Rain latest hour (hover to see other rain measurements)
** Current wind speed in m/s (hover to see current wind gust speed)